Location: �clusier
(49.9361°N, 2.7869°E)
Time: 22:02:43
(UTC+00:00)

FALCON 9 DEB - Pass Details

Date: 16 June 2021
Orbit: 422 x 432 km, 53.0° (Epoch: 01 August)

Event Time Altitude Azimuth Distance (km) Brightness Sun altitude
Rises 22:54:03 0° 257° (WSW) 2,394 6.9 -15.6°
Reaches altitude 10° 22:56:10 10° 260° (W) 1,526 5.9 -15.7°
Maximum altitude 22:59:35 68° 344° (NNW) 467 3.4 -15.8°
Drops below altitude 10° 23:02:59 10° 68° (ENE) 1,523 6.0 -16.0°
Sets 23:05:06 0° 71° (ENE) 2,389 7.0 -16.0°
